Regional Weather Roundup
Issued by NWS

Home | Current Version | Previous Version | Graphics & Text | Print | Product List | Glossary On
Versions: 1 2 3 4 5 6 7 8 9 10 11 12 13 14 15 16 17 18 19 20 21 22 23 24 25 26 27 28 29 30 31 32 33 34 35 36 37 38 39 40 41 42 43 44 45 46 47 48 49 50
000
ASUS43 KMPX 280810
RWRMN
WEATHER ROUNDUP FOR MINNESOTA
NATIONAL WEATHER SERVICE TWIN CITIES/CHANHASSEN MN
300 AM CDT TUE MAR 28 2017


NOTE: "FAIR" INDICATES FEW OR NO CLOUDS BELOW 12,000 FEET WITH NO
SIGNIFICANT WEATHER AND/OR OBSTRUCTIONS TO VISIBILITY. N/A MEANS
CURRENT SKY AND/OR WEATHER CONDITIONS ARE NOT AVAILABLE.

MNZ060>063-068>070-280900-
   Twin Cities Metro

CITY           SKY/WX    TMP DP  RH WIND       PRES   REMARKS
TWIN CITIES    PTCLDY    38  34  85 CALM      30.06R
ST PAUL        CLEAR     37  36  96 CALM      30.07R
CRYSTAL        CLEAR     34  29  82 CALM      30.05R
BLAINE         CLEAR     36  34  93 CALM      30.06R
LAKEVILLE      CLEAR     30  30 100 CALM      30.06S
EDEN PRAIRIE   PTCLDY    39  34  82 CALM      30.05R
SOUTH ST PAUL  CLEAR     35  34  95 CALM      30.06R
LAKE ELMO      FAIR      32  32 100 CALM      30.07S
$$
MNZ001>005-007-008-013>017-022>024-027-028-280900-
   Northwest Minnesota

CITY           SKY/WX    TMP DP  RH WIND       PRES   REMARKS
BEMIDJI        PTCLDY    30  25  82 CALM      30.06R
HALLOCK        CLOUDY    34  32  93 N5        30.12R WCI  30
ROSEAU         CLOUDY    36  30  80 N3        30.11S
WARROAD        CLOUDY    37  30  75 N6        30.11R
THIEF RVR FALL CLOUDY   N/A N/A N/A N7        30.10S
CROOKSTON      MIX PCPN  34  34 100 N3        30.11R
FOSSTON        PTCLDY    34  28  80 N3        30.08R
DETROIT LAKES  PTCLDY    32  32 100 CALM      30.06S
MOORHEAD       DRZL/FOG  36  34  93 N7        30.09S VSB 1/4
PARK RAPIDS    CLEAR     31  23  72 CALM      30.06R
MAHNOMEN       FAIR      32  32  99 N5        30.07R WCI  27
$$
MNZ006-009>011-018-025>026-280900-
   North Central Minnesota

CITY           SKY/WX    TMP DP  RH WIND       PRES   REMARKS
BAUDETTE       CLOUDY    34  28  79 NW3       30.09R
FLAG ISLAND    CLOUDY    34  30  86 N5        30.11R WCI  30
INTL FALLS     CLOUDY    39  28  64 N3        30.08R
WASKISH        CLOUDY    36  30  80 CALM      30.07S
BIG FORK       CLOUDY    32  27  80 CALM      30.07R
LONGVILLE      CLEAR     27  27 100 CALM      30.07S
GRAND RAPIDS   CLEAR     28  26  92 CALM      30.09R
CRANE LAKE     PTCLDY    27  25  93 CALM      30.10R
ORR            CLOUDY    30  25  80 CALM      30.05R
COOK           CLOUDY    28  27  93 CALM      30.08R
WALKER         PTSUNNY   30  25  81 NW5       30.07R WCI  26
$$
MNZ012-019>021-037-280900-
   Northeast Minnesota

CITY           SKY/WX    TMP DP  RH WIND       PRES   REMARKS
DULUTH         CLEAR     28  26  92 CALM      30.06R
ELY            MOCLDY    27  25  93 CALM      30.06S
HIBBING        CLEAR     24  24 100 CALM      30.07R
EVELETH        CLEAR     26  24  91 CALM      30.08S
DULUTH HARBOR  CLEAR     30  28  93 CALM      30.09S
TWO HARBORS    CLEAR     32  27  80 NW3       30.05R
SILVER BAY     CLEAR     27  27 100 CALM      30.05R
GRAND MARAIS     N/A     31  29  92 NE3       30.06S
G MARAIS ARPRT CLEAR     25  21  86 N5        30.04F WCI  19
$$
MNZ029>031-032-039>041-046>048-054>057-064-280900-
   West Central Minnesota

CITY           SKY/WX    TMP DP  RH WIND       PRES   REMARKS
FERGUS FALLS   CLEAR     37  37 100 CALM      30.09S
WHEATON        CLEAR     36  34  93 CALM      30.09R
MORRIS         CLEAR     34  30  86 CALM      30.06S
ALEXANDRIA     CLEAR     38  32  79 NW3       30.07S
ELBOW LAKE     FAIR      34  33  96 CALM      30.07R
WADENA         CLEAR     28  28 100 CALM      30.06S
GLENWOOD       CLEAR     37  34  87 CALM      30.07S
APPLETON       CLOUDY    36  34  93 CALM      30.06S
BENSON         CLOUDY    34  28  80 CALM      30.08S
ORTONVILLE     CLOUDY    37  32  81 NE6       30.06S
MADISON        CLOUDY    43  37  81 CALM      30.06S
WILLMAR        CLOUDY    36  34  93 N5        30.08R
$$
MNZ033>034-036-042>043-049>051-058-059-280900-
   Central Minnesota

CITY           SKY/WX    TMP DP  RH WIND       PRES   REMARKS
ST CLOUD       CLEAR     30  29  96 N3        30.06R
SAUK CENTRE    FAIR      31  29  95 CALM      30.07R
PAYNESVILLE      N/A     30  30 100 CALM      30.07R
AITKIN         CLEAR     28  25  86 CALM      30.06R
PINE RIVER     CLEAR     27  25  93 CALM      30.10R
BRAINERD       CLEAR     26  25  96 CALM      30.07R
STAPLES        PTCLDY    30  28  93 CALM      30.06R
LONG PRAIRIE   FAIR      32  30  93 CALM      30.07S
LITTLE FALLS   CLEAR     30  28  93 CALM      30.08R
LITCHFIELD     CLOUDY    39  37  93 CALM      30.07R
BUFFALO        CLOUDY    33  30  90 CALM      30.07S
MAPLE LAKE     PTCLDY    32  32 100 CALM      30.07S
HUTCHINSON     CLOUDY    36  35  96 CALM      30.07R
$$
MNZ037-044-045-052-053-280900-
   East Central Minnesota

CITY           SKY/WX    TMP DP  RH WIND       PRES   REMARKS
PRINCETON      PTCLDY    30  28  93 CALM      30.07S
MORA           CLEAR     28  27  93 CALM      30.09R
CAMBRIDGE      CLEAR     30  28  93 CALM      30.05S
RUSH CITY      CLEAR     29  27  90 CALM      30.07R
MOOSE LAKE     CLEAR     28  27  93 CALM      30.06R
CLOQUET        PTCLDY    27  25  93 CALM      30.07R
MCGREGOR       CLEAR     28  27  93 CALM      30.07S
$$
MNZ071>073-080-081-089-090-097-098-280900-
   Southwest Minnesota

CITY           SKY/WX    TMP DP  RH WIND       PRES   REMARKS
MONTEVIDEO     CLOUDY    37  32  81 NE5       30.08R
GRANITE FALLS  CLOUDY    40  36  84 CALM      30.07S
CANBY          CLOUDY    41  39  91 CALM      30.07S
MARSHALL       CLOUDY    39  36  89 SW5       30.06S
REDWOOD FALLS  MOCLDY    42  33  70 W3        30.06R
OLIVIA         CLOUDY    34  32  93 CALM      30.05S
PIPESTONE      CLOUDY    37  34  87 CALM      30.06R
WINDOM         PTCLDY    36  36 100 W5        30.06R
WORTHINGTON    CLOUDY    36  34  92 W8        30.06S
JACKSON        MOCLDY    36  34  93 CALM      30.07R
TRACY          CLOUDY    43  39  86 SW7       30.06R
SLAYTON        CLOUDY    35  35  96 W5        30.07R WCI  31
$$
MNZ065>067-074>077-082>085-091>093-280900-
   South Central Minnesota

CITY           SKY/WX    TMP DP  RH WIND       PRES   REMARKS
MANKATO        PTCLDY    40  38  93 SE5       30.06R FOG
NEW ULM        CLOUDY    34  30  86 W5        30.06R WCI  30
ST JAMES       CLEAR     36  36 100 CALM      30.07R
FAIRMONT       FOG       36  36 100 NW3       30.07R VSB 3/4
GLENCOE        PTCLDY    35  34  96 CALM      30.06R
FARIBAULT      FOG       32  32 100 CALM      30.07R VSB 1/2
OWATONNA       CLEAR     30  30 100 CALM      30.06S
WASECA         CLEAR     32  32 100 CALM      30.07S
ALBERT LEA     CLEAR     32  32 100 CALM      30.05R FOG
$$
MNZ078>079-086>088-094>096-280900-
   Southeast Minnesota

CITY           SKY/WX    TMP DP  RH WIND       PRES   REMARKS
ROCHESTER      CLEAR     37  37 100 N3        30.05R
RED WING       CLEAR     30  30 100 CALM      30.07R FOG
STANTON        CLEAR     31  29  94 CALM      30.06R
DODGE CENTER   FOG       32  32 100 CALM      30.06R VSB 1/4
WINONA         PTCLDY    34  34 100 NW3       30.08R FOG
AUSTIN         FOG       32  30  93 CALM      30.05R VSB 1/4
PRESTON        CLOUDY    37  36  94 N3        30.05R
$$
ABBREVIATIONS USED IN REMARKS
   TC - TEMPERATURES IN CELSIUS
  WCI - WIND CHILL INDEX
   HX - HEAT INDEX
  VSB - VISIBILITY
$$




USA.gov is the U.S. government's official web portal to all federal, state and local government web resources and services.